RYR8V ENTO-EPKK

Flight info

Callsign RYR8V
Flight time 1h 35m
Altitude 37000
Route BOMGU Z132 LATKU L996 KELIN DCT AMROR N983 POLON N133 NEGUV M66 KUKAM
Aircraft B738/M-SDE2E3FGHIRWXY/LB1

Departure

Time 2026-05-05 10:42
Airport Sandefjord Airport, Torp (ENTO)

Arrival

Time 2026-05-05 12:17
Airport Kraków John Paul II International Airport (EPKK)
Time Latitude Longitude Altitude Speed Heading
2026-05-05 10:22 59.18010 10.25253 295 ft 0 kts 178°
2026-05-05 10:35 59.18011 10.25253 295 ft 1 kts 176°
2026-05-05 10:36 59.18026 10.25256 295 ft 2 kts 182°
2026-05-05 10:36 59.18041 10.25255 295 ft 2 kts 179°
2026-05-05 10:36 59.18051 10.25255 295 ft 1 kts 181°
2026-05-05 10:36 59.18064 10.25244 295 ft 2 kts 122°
2026-05-05 10:37 59.18068 10.25226 295 ft 0 kts 88°
2026-05-05 10:37 59.18067 10.25214 295 ft 0 kts 89°
2026-05-05 10:38 59.18068 10.25327 295 ft 21 kts 90°
2026-05-05 10:39 59.18012 10.25535 295 ft 17 kts 173°
2026-05-05 10:39 59.17896 10.25546 295 ft 15 kts 174°
2026-05-05 10:39 59.17791 10.25638 295 ft 19 kts 145°
2026-05-05 10:39 59.17657 10.25816 295 ft 22 kts 146°
2026-05-05 10:40 59.17514 10.25893 295 ft 20 kts 178°
2026-05-05 10:40 59.17416 10.25915 295 ft 3 kts 211°
2026-05-05 10:40 59.17425 10.25889 295 ft 5 kts
2026-05-05 10:40 59.17430 10.25889 295 ft 1 kts 358°
2026-05-05 10:41 59.17606 10.25881 295 ft 58 kts 358°
2026-05-05 10:41 59.18231 10.25871 295 ft 117 kts 358°
2026-05-05 10:41 59.19211 10.25841 318 ft 162 kts 358°
2026-05-05 10:41 59.20382 10.25857 719 ft 171 kts 358°
2026-05-05 10:42 59.22946 10.25809 1660 ft 192 kts 356°
2026-05-05 10:42 59.24346 10.25877 1908 ft 215 kts
2026-05-05 10:42 59.25737 10.27332 2227 ft 242 kts 47°
2026-05-05 10:43 59.26424 10.30339 2840 ft 258 kts 82°
2026-05-05 10:43 59.26096 10.33831 3396 ft 272 kts 118°
2026-05-05 10:43 59.24867 10.36682 4240 ft 270 kts 139°
2026-05-05 10:43 59.23574 10.39177 5150 ft 267 kts 139°
2026-05-05 10:44 59.22251 10.41779 5946 ft 268 kts 139°
2026-05-05 10:44 59.20894 10.44415 6475 ft 281 kts 139°
2026-05-05 10:44 59.19490 10.47182 7120 ft 289 kts 138°
2026-05-05 10:44 59.18075 10.50047 7866 ft 293 kts 138°
2026-05-05 10:45 59.16670 10.52917 8630 ft 296 kts 138°
2026-05-05 10:45 59.15236 10.55845 9435 ft 297 kts 139°
2026-05-05 10:45 59.13829 10.58761 10388 ft 293 kts 139°
2026-05-05 10:45 59.12369 10.61733 10659 ft 314 kts 140°
2026-05-05 10:46 59.11061 10.64364 10929 ft 329 kts 139°
2026-05-05 10:46 59.10289 10.65927 11234 ft 332 kts 140°
2026-05-05 10:46 59.08087 10.70411 12222 ft 337 kts 140°
2026-05-05 10:47 59.05789 10.75087 13257 ft 342 kts 140°
2026-05-05 10:47 59.03399 10.79936 14308 ft 347 kts 140°
2026-05-05 10:47 59.01345 10.84071 15121 ft 353 kts 140°
2026-05-05 10:47 58.99623 10.87535 15793 ft 358 kts 140°
2026-05-05 10:48 58.97875 10.91053 16442 ft 364 kts 139°
2026-05-05 10:48 58.96085 10.94656 17088 ft 369 kts 139°
2026-05-05 10:48 58.94278 10.98290 17716 ft 373 kts 138°
2026-05-05 10:48 58.92468 11.01926 18323 ft 378 kts 138°
2026-05-05 10:49 58.90621 11.05632 18922 ft 383 kts 138°
2026-05-05 10:49 58.88761 11.09360 19508 ft 387 kts 138°
2026-05-05 10:49 58.86857 11.13171 20099 ft 392 kts 138°
2026-05-05 10:49 58.84933 11.17014 20693 ft 396 kts 138°
2026-05-05 10:50 58.82997 11.20870 21261 ft 399 kts 138°
2026-05-05 10:50 58.81039 11.24765 21820 ft 403 kts 138°
2026-05-05 10:50 58.79069 11.28676 22358 ft 407 kts 138°
2026-05-05 10:50 58.77059 11.32658 22891 ft 411 kts 138°
2026-05-05 10:51 58.75048 11.36634 23399 ft 414 kts 138°
2026-05-05 10:51 58.73011 11.40654 23903 ft 418 kts 138°
2026-05-05 10:51 58.70996 11.44815 24384 ft 423 kts 134°
2026-05-05 10:51 58.69138 11.49293 24858 ft 430 kts 128°
2026-05-05 10:52 58.67547 11.54317 25327 ft 436 kts 122°
2026-05-05 10:52 58.66097 11.59495 25785 ft 440 kts 121°
2026-05-05 10:52 58.64656 11.64724 26213 ft 444 kts 121°
2026-05-05 10:52 58.63194 11.70036 26657 ft 447 kts 122°
2026-05-05 10:53 58.61716 11.75399 27071 ft 450 kts 122°
2026-05-05 10:53 58.60206 11.80760 27472 ft 452 kts 125°
2026-05-05 10:53 58.58455 11.85738 27866 ft 451 kts 131°
2026-05-05 10:53 58.56349 11.90240 28238 ft 449 kts 142°
2026-05-05 10:54 58.53869 11.93818 28636 ft 445 kts 152°
2026-05-05 10:54 58.51130 11.96727 29001 ft 443 kts 160°
2026-05-05 10:54 58.48266 11.98676 29334 ft 440 kts 171°
2026-05-05 10:54 58.45268 11.99776 29731 ft 438 kts 175°
2026-05-05 10:55 58.42242 12.00629 30051 ft 441 kts 176°
2026-05-05 10:55 58.39169 12.01459 30402 ft 443 kts 176°
2026-05-05 10:55 58.36070 12.02291 30759 ft 445 kts 176°
2026-05-05 10:55 58.32986 12.03117 31188 ft 445 kts 176°
2026-05-05 10:56 58.29920 12.03941 31624 ft 445 kts 176°
2026-05-05 10:56 58.26860 12.05021 32050 ft 447 kts 172°
2026-05-05 10:56 58.23853 12.06600 32474 ft 451 kts 165°
2026-05-05 10:56 58.20910 12.08974 32905 ft 454 kts 159°
2026-05-05 10:57 58.18095 12.11640 33308 ft 455 kts 158°
2026-05-05 10:57 58.15247 12.14466 33699 ft 455 kts 157°
2026-05-05 10:57 58.12464 12.17258 34086 ft 455 kts 157°
2026-05-05 10:57 58.09644 12.20080 34478 ft 454 kts 157°
2026-05-05 10:58 58.06806 12.22911 34863 ft 453 kts 157°
2026-05-05 10:58 58.04010 12.25691 35236 ft 453 kts 157°
2026-05-05 10:58 58.01197 12.28482 35602 ft 452 kts 157°
2026-05-05 10:58 57.98421 12.31231 35954 ft 451 kts 157°
2026-05-05 10:59 57.95625 12.33991 36292 ft 451 kts 157°
2026-05-05 10:59 57.92828 12.36748 36603 ft 451 kts 157°
2026-05-05 10:59 57.90017 12.39512 36889 ft 451 kts 157°
2026-05-05 11:00 57.84522 12.44900 36909 ft 451 kts 157°
2026-05-05 11:00 57.78916 12.50378 36917 ft 453 kts 157°
2026-05-05 11:01 57.73215 12.55918 36912 ft 465 kts 157°
2026-05-05 11:01 57.67398 12.61561 36910 ft 467 kts 157°
2026-05-05 11:02 57.61745 12.67031 36911 ft 464 kts 158°
2026-05-05 11:02 57.55959 12.72608 36912 ft 463 kts 158°
2026-05-05 11:03 57.50194 12.78140 36912 ft 464 kts 158°
2026-05-05 11:03 57.44419 12.83662 36911 ft 465 kts 158°
2026-05-05 11:04 57.38647 12.89162 36920 ft 464 kts 158°
2026-05-05 11:04 57.32869 12.94647 36941 ft 464 kts 158°
2026-05-05 11:05 57.27079 13.00122 36964 ft 464 kts 158°
2026-05-05 11:05 57.21312 13.05556 36966 ft 464 kts 158°
2026-05-05 11:06 57.15535 13.10980 36966 ft 464 kts 158°
2026-05-05 11:06 57.09735 13.16409 36965 ft 464 kts 158°
2026-05-05 11:07 57.03928 13.21828 36965 ft 467 kts 158°
2026-05-05 11:07 56.98063 13.27282 36961 ft 471 kts 158°
2026-05-05 11:08 56.92173 13.32734 36966 ft 474 kts 158°
2026-05-05 11:08 56.86321 13.38132 36965 ft 473 kts 158°
2026-05-05 11:09 56.80400 13.43574 36965 ft 472 kts 158°
2026-05-05 11:09 56.74501 13.48976 36950 ft 473 kts 158°
2026-05-05 11:10 56.68575 13.54384 36937 ft 473 kts 158°
2026-05-05 11:10 56.62636 13.59786 36938 ft 472 kts 158°
2026-05-05 11:11 56.56733 13.65136 36939 ft 473 kts 159°
2026-05-05 11:11 56.50822 13.70478 36937 ft 472 kts 159°
2026-05-05 11:12 56.44946 13.75769 36931 ft 472 kts 159°
2026-05-05 11:12 56.39012 13.81091 36925 ft 472 kts 159°
2026-05-05 11:13 56.33129 13.86350 36919 ft 472 kts 159°
2026-05-05 11:13 56.27180 13.91648 36913 ft 472 kts 159°
2026-05-05 11:14 56.21335 13.96835 36912 ft 472 kts 159°
2026-05-05 11:14 56.15399 14.02085 36912 ft 472 kts 159°
2026-05-05 11:15 56.09459 14.07321 36912 ft 472 kts 159°
2026-05-05 11:15 56.03618 14.12451 36912 ft 472 kts 159°
2026-05-05 11:16 55.97734 14.17601 36912 ft 472 kts 159°
2026-05-05 11:16 55.91903 14.22687 36912 ft 472 kts 159°
2026-05-05 11:17 55.87813 14.26245 36912 ft 472 kts 159°
2026-05-05 11:17 55.81864 14.31405 36912 ft 472 kts 159°
2026-05-05 11:18 55.75922 14.36540 36912 ft 472 kts 159°
2026-05-05 11:18 55.69949 14.41685 36912 ft 472 kts 159°
2026-05-05 11:19 55.64284 14.46549 36912 ft 472 kts 159°
2026-05-05 11:19 55.58322 14.51650 36912 ft 472 kts 159°
2026-05-05 11:20 55.52333 14.56757 36912 ft 472 kts 159°
2026-05-05 11:20 55.46388 14.61809 36912 ft 472 kts 159°
2026-05-05 11:21 55.40509 14.66790 36912 ft 471 kts 160°
2026-05-05 11:21 55.34589 14.71791 36912 ft 471 kts 160°
2026-05-05 11:22 55.28624 14.76811 36912 ft 471 kts 160°
2026-05-05 11:22 55.22657 14.81815 36912 ft 471 kts 160°
2026-05-05 11:23 55.16691 14.86802 36912 ft 471 kts 160°
2026-05-05 11:23 55.10744 14.91756 36912 ft 471 kts 160°
2026-05-05 11:24 55.04733 14.96746 36912 ft 471 kts 160°
2026-05-05 11:24 54.98903 15.01569 36912 ft 471 kts 160°
2026-05-05 11:25 54.92926 15.06560 36910 ft 473 kts 157°
2026-05-05 11:25 54.87494 15.12899 36909 ft 483 kts 141°
2026-05-05 11:26 54.82778 15.21504 36912 ft 487 kts 136°
2026-05-05 11:26 54.78179 15.30287 36912 ft 487 kts 136°
2026-05-05 11:27 54.73590 15.39003 36912 ft 487 kts 136°
2026-05-05 11:27 54.68959 15.47752 36912 ft 487 kts 136°
2026-05-05 11:28 54.64333 15.56453 36912 ft 487 kts 136°
2026-05-05 11:28 54.59655 15.64987 36911 ft 485 kts 140°
2026-05-05 11:29 54.54654 15.72845 36911 ft 483 kts 143°
2026-05-05 11:29 54.49638 15.80630 36912 ft 483 kts 143°
2026-05-05 11:30 54.44629 15.88395 36912 ft 484 kts 142°
2026-05-05 11:30 54.39601 15.96171 36912 ft 484 kts 142°
2026-05-05 11:31 54.34563 16.03940 36912 ft 483 kts 142°
2026-05-05 11:31 54.29517 16.11697 36912 ft 483 kts 142°
2026-05-05 11:32 54.24505 16.19376 36912 ft 483 kts 142°
2026-05-05 11:32 54.19454 16.27090 36912 ft 483 kts 142°
2026-05-05 11:33 54.14397 16.34787 36912 ft 483 kts 142°
2026-05-05 11:33 54.09340 16.42456 36912 ft 483 kts 142°
2026-05-05 11:34 54.04282 16.50104 36912 ft 484 kts 142°
2026-05-05 11:34 53.99234 16.57708 36912 ft 484 kts 142°
2026-05-05 11:35 53.94143 16.65352 36912 ft 484 kts 143°
2026-05-05 11:35 53.89205 16.72749 36912 ft 483 kts 143°
2026-05-05 11:36 53.84147 16.80298 36912 ft 483 kts 143°
2026-05-05 11:36 53.79089 16.87820 36912 ft 483 kts 143°
2026-05-05 11:37 53.73999 16.95362 36912 ft 483 kts 143°
2026-05-05 11:37 53.68917 17.02868 36912 ft 483 kts 143°
2026-05-05 11:38 53.63823 17.10375 36912 ft 483 kts 143°
2026-05-05 11:38 53.58736 17.17847 36912 ft 483 kts 143°
2026-05-05 11:39 53.53627 17.25326 36912 ft 483 kts 143°
2026-05-05 11:39 53.48522 17.32776 36912 ft 483 kts 143°
2026-05-05 11:40 53.43409 17.40212 36912 ft 483 kts 143°
2026-05-05 11:40 53.38306 17.47607 36912 ft 483 kts 143°
2026-05-05 11:41 53.33197 17.54989 36912 ft 483 kts 143°
2026-05-05 11:41 53.28043 17.62409 36912 ft 483 kts 143°
2026-05-05 11:42 53.23284 17.69244 36912 ft 483 kts 144°
2026-05-05 11:42 53.18885 17.75547 36912 ft 482 kts 144°
2026-05-05 11:43 53.14125 17.82342 36912 ft 482 kts 144°
2026-05-05 11:44 53.08241 17.90712 36912 ft 483 kts 144°
2026-05-05 11:44 53.02920 17.98253 36912 ft 483 kts 144°
2026-05-05 11:45 52.97718 18.05600 36912 ft 483 kts 144°
2026-05-05 11:45 52.92536 18.12896 36912 ft 483 kts 144°
2026-05-05 11:46 52.87444 18.20040 36912 ft 483 kts 144°
2026-05-05 11:46 52.82303 18.27230 36912 ft 483 kts 144°
2026-05-05 11:47 52.77180 18.34372 36912 ft 483 kts 144°
2026-05-05 11:47 52.71994 18.41579 36912 ft 483 kts 144°
2026-05-05 11:48 52.64212 18.52350 36912 ft 483 kts 144°
2026-05-05 11:48 52.59086 18.59416 36912 ft 483 kts 144°
2026-05-05 11:49 52.53991 18.66416 36912 ft 483 kts 145°
2026-05-05 11:49 52.48964 18.73309 36911 ft 482 kts 145°
2026-05-05 11:50 52.43799 18.80364 36912 ft 482 kts 145°
2026-05-05 11:50 52.38622 18.87413 36912 ft 482 kts 145°
2026-05-05 11:51 52.33431 18.94457 36912 ft 482 kts 145°
2026-05-05 11:51 52.28251 19.01457 36912 ft 482 kts 145°
2026-05-05 11:52 52.23043 19.08470 36912 ft 482 kts 145°
2026-05-05 11:52 52.17805 19.15502 36912 ft 482 kts 145°
2026-05-05 11:53 52.12584 19.22488 36912 ft 482 kts 145°
2026-05-05 11:53 52.07359 19.29460 36912 ft 482 kts 145°
2026-05-05 11:54 52.02119 19.36427 36912 ft 482 kts 145°
2026-05-05 11:54 51.96940 19.43295 36912 ft 482 kts 145°
2026-05-05 11:55 51.91699 19.50221 36912 ft 482 kts 145°
2026-05-05 11:55 51.86589 19.56955 36911 ft 482 kts 145°
2026-05-05 11:56 51.81302 19.63430 36912 ft 478 kts 151°
2026-05-05 11:56 51.75532 19.67955 36777 ft 470 kts 166°
2026-05-05 11:57 51.72433 19.69645 36115 ft 475 kts 167°
2026-05-05 11:57 51.69334 19.71284 35308 ft 474 kts 167°
2026-05-05 11:57 51.66252 19.72905 34529 ft 472 kts 167°
2026-05-05 11:57 51.63141 19.74538 33763 ft 470 kts 167°
2026-05-05 11:58 51.60057 19.76152 32983 ft 467 kts 167°
2026-05-05 11:58 51.56984 19.77758 32200 ft 466 kts 167°
2026-05-05 11:58 51.53912 19.79361 31399 ft 467 kts 167°
2026-05-05 11:58 51.50801 19.80983 30565 ft 467 kts 167°
2026-05-05 11:59 51.47726 19.82592 29778 ft 467 kts 167°
2026-05-05 11:59 51.44626 19.84215 29202 ft 468 kts 167°
2026-05-05 11:59 51.41481 19.85854 28518 ft 472 kts 167°
2026-05-05 11:59 51.38337 19.87487 27839 ft 472 kts 166°
2026-05-05 12:00 51.35194 19.89118 27159 ft 473 kts 166°
2026-05-05 12:00 51.32053 19.90748 26468 ft 473 kts 166°
2026-05-05 12:00 51.28894 19.92387 25783 ft 474 kts 166°
2026-05-05 12:00 51.25732 19.94026 25081 ft 473 kts 166°
2026-05-05 12:01 51.22595 19.95652 24382 ft 468 kts 166°
2026-05-05 12:01 51.19525 19.97238 23701 ft 461 kts 166°
2026-05-05 12:01 51.16491 19.98801 23023 ft 455 kts 166°
2026-05-05 12:01 51.13508 20.00333 22347 ft 450 kts 166°
2026-05-05 12:02 51.10511 20.01870 21674 ft 446 kts 166°
2026-05-05 12:02 51.07586 20.03367 20993 ft 441 kts 166°
2026-05-05 12:02 51.04662 20.04863 20324 ft 436 kts 166°
2026-05-05 12:02 51.01771 20.06340 19669 ft 431 kts 166°
2026-05-05 12:03 50.98925 20.07792 19006 ft 427 kts 166°
2026-05-05 12:03 50.96121 20.09220 18378 ft 422 kts 166°
2026-05-05 12:03 50.93283 20.10312 17733 ft 415 kts 175°
2026-05-05 12:03 50.90400 20.10532 17090 ft 406 kts 187°
2026-05-05 12:04 50.87862 20.09771 16491 ft 400 kts 198°
2026-05-05 12:04 50.85126 20.08422 15832 ft 395 kts 199°
2026-05-05 12:04 50.82499 20.07153 15207 ft 392 kts 197°
2026-05-05 12:04 50.79835 20.06300 14601 ft 391 kts 188°
2026-05-05 12:05 50.77101 20.06085 13976 ft 390 kts 183°
2026-05-05 12:05 50.74404 20.06071 13355 ft 387 kts 182°
2026-05-05 12:05 50.71733 20.06080 12733 ft 383 kts 182°
2026-05-05 12:05 50.69060 20.06090 12123 ft 379 kts 182°
2026-05-05 12:06 50.66412 20.06101 11509 ft 377 kts 182°
2026-05-05 12:06 50.63818 20.06112 10903 ft 375 kts 182°
2026-05-05 12:06 50.61196 20.06125 10464 ft 372 kts 182°
2026-05-05 12:06 50.58614 20.06135 10314 ft 362 kts 182°
2026-05-05 12:07 50.56157 20.06146 10164 ft 340 kts 182°
2026-05-05 12:07 50.53842 20.06155 10016 ft 323 kts 182°
2026-05-05 12:07 50.51597 20.06160 9515 ft 318 kts 182°
2026-05-05 12:07 50.49392 20.06168 9075 ft 313 kts 182°
2026-05-05 12:08 50.47259 20.06173 8680 ft 307 kts 182°
2026-05-05 12:08 50.45113 20.06179 8287 ft 301 kts 182°
2026-05-05 12:08 50.43075 20.06186 8035 ft 292 kts 182°
2026-05-05 12:08 50.41098 20.06188 7958 ft 277 kts 182°
2026-05-05 12:09 50.39405 20.06195 7651 ft 275 kts 182°
2026-05-05 12:09 50.37962 20.06201 7416 ft 272 kts 182°
2026-05-05 12:09 50.36056 20.06207 7088 ft 269 kts 182°
2026-05-05 12:09 50.34169 20.06211 6736 ft 268 kts 182°
2026-05-05 12:10 50.32309 20.06218 6395 ft 267 kts 182°
2026-05-05 12:10 50.30476 20.06222 6061 ft 266 kts 182°
2026-05-05 12:10 50.28621 20.06228 5717 ft 265 kts 182°
2026-05-05 12:10 50.26774 20.06234 5375 ft 264 kts 182°
2026-05-05 12:11 50.24941 20.06240 5035 ft 262 kts 182°
2026-05-05 12:11 50.23141 20.06246 4775 ft 258 kts 182°
2026-05-05 12:11 50.21368 20.06255 4728 ft 245 kts 182°
2026-05-05 12:11 50.19682 20.06530 4505 ft 243 kts 171°
2026-05-05 12:12 50.18017 20.07084 4237 ft 242 kts 170°
2026-05-05 12:12 50.16407 20.07641 4202 ft 230 kts 170°
2026-05-05 12:12 50.14887 20.08159 4131 ft 220 kts 171°
2026-05-05 12:12 50.13391 20.08300 4060 ft 210 kts 194°
2026-05-05 12:13 50.12186 20.07310 3986 ft 196 kts 229°
2026-05-05 12:13 50.11514 20.05621 3804 ft 184 kts 253°
2026-05-05 12:13 50.11209 20.03716 3571 ft 174 kts 261°
2026-05-05 12:13 50.10993 20.01936 3407 ft 164 kts 261°
2026-05-05 12:14 50.10776 20.00234 3277 ft 161 kts 260°
2026-05-05 12:14 50.10545 19.98540 3118 ft 164 kts 260°
2026-05-05 12:14 50.10318 19.96811 2972 ft 161 kts 260°
2026-05-05 12:14 50.10095 19.95078 2724 ft 163 kts 258°
2026-05-05 12:15 50.09850 19.93397 2487 ft 160 kts 258°
2026-05-05 12:15 50.09615 19.91790 2311 ft 145 kts 260°
2026-05-05 12:15 50.09404 19.90280 2090 ft 140 kts 261°
2026-05-05 12:15 50.09204 19.88806 1971 ft 145 kts 261°
2026-05-05 12:16 50.08990 19.87244 1725 ft 146 kts 261°
2026-05-05 12:16 50.08785 19.85732 1529 ft 140 kts 260°
2026-05-05 12:16 50.08592 19.84255 1367 ft 142 kts 260°
2026-05-05 12:16 50.08376 19.82774 1176 ft 142 kts 259°
2026-05-05 12:17 50.08171 19.81278 988 ft 137 kts 258°
2026-05-05 12:17 50.07961 19.79875 813 ft 136 kts 261°
2026-05-05 12:17 50.07802 19.78667 800 ft 78 kts 256°
2026-05-05 12:17 50.07720 19.78168 800 ft 21 kts 238°
2026-05-05 12:18 50.07643 19.78093 800 ft 12 kts 187°
2026-05-05 12:18 50.07555 19.78089 800 ft 14 kts 181°
2026-05-05 12:18 50.07476 19.78178 800 ft 16 kts 89°
2026-05-05 12:18 50.07501 19.78362 800 ft 18 kts 77°
2026-05-05 12:19 50.07527 19.78543 800 ft 15 kts 77°
2026-05-05 12:19 50.07550 19.78691 800 ft 14 kts 78°
2026-05-05 12:19 50.07570 19.78850 800 ft 15 kts 78°
2026-05-05 12:19 50.07594 19.79015 800 ft 15 kts 78°
2026-05-05 12:20 50.07618 19.79200 800 ft 18 kts 77°
2026-05-05 12:20 50.07646 19.79380 800 ft 16 kts 78°
2026-05-05 12:20 50.07667 19.79555 800 ft 16 kts 77°
2026-05-05 12:20 50.07694 19.79736 800 ft 18 kts 77°
2026-05-05 12:21 50.07679 19.79864 800 ft 10 kts 153°
2026-05-05 12:21 50.07614 19.79896 800 ft 9 kts 168°
2026-05-05 12:21 50.07555 19.79916 800 ft 8 kts 167°
2026-05-05 12:21 50.07516 19.79957 800 ft 5 kts 111°
2026-05-05 12:22 50.07516 19.80021 800 ft 8 kts 82°
2026-05-05 12:22 50.07527 19.80111 800 ft 1 kts 89°
2026-05-05 12:22 50.07523 19.80123 800 ft 2 kts 145°
2026-05-05 12:22 50.07488 19.80138 800 ft 5 kts 167°
2026-05-05 12:23 50.07475 19.80142 800 ft 0 kts 167°